Regional Weather Roundup
Issued by NWS

Home | Current Version | Previous Version | Text Only | Print | Product List | Glossary Off
Versions: 1 2 3 4 5 6 7 8 9 10 11 12 13 14 15 16 17 18 19 20 21 22 23 24 25 26 27 28 29 30 31 32 33 34 35 36 37 38 39 40 41 42 43 44 45 46 47 48 49 50

000
ASUS45 KSLC 231810
RWRUT

UTAH REGIONAL WEATHER ROUNDUP
NATIONAL WEATHER SERVICE SALT LAKE CITY UT
1200 PM MDT TUE SEP 23 2014

UTZ001>011-023>025-231900-

NORTHERN UTAH

CITY           SKY/WX    TMP DP  RH WIND       PRES   REMARKS
HILL AFB       MOSUNNY   74  52  45 S6        30.20F
LOGAN          SUNNY     68  51  54 NE3       30.19F
OGDEN          SUNNY     74  51  44 CALM      30.18S
PROVO AIRPORT  MOSUNNY   72  55  56 VRB5      30.22S
SALT LAKE CITY MOSUNNY   76  50  40 S6        30.16S
VERNAL         SUNNY     67  54  63 CALM      30.23F
WENDOVER       MOSUNNY   70  52  52 SE5       30.17F
HEBER CITY     SUNNY     68  50  52 CALM      30.24F
WEST JORDAN    SUNNY     75  46  35 SE12      30.20S

$$

UTZ012>022-026-027-231900-

SOUTHERN UTAH

CITY           SKY/WX    TMP DP  RH WIND       PRES   REMARKS
BRYCE CANYON   SUNNY     66  40  38 CALM      30.39S
CEDAR CITY     SUNNY     74  36  25 CALM      30.26S
MILFORD        SUNNY     75  41  29 S14       30.22S
MOAB/CYNLANDS  SUNNY     76  52  43 CALM      30.18F
PRICE          SUNNY     72  53  51 S8        30.26S
ST GEORGE      CLEAR     77  46  33 CALM      30.14F
KANAB            N/A     73  41  31 S3        30.26

$$

REGIONAL REPORTS     COLORADO/ARIZONA

CITY           SKY/WX    TMP DP  RH WIND       PRES   REMARKS
CRAIG, CO      MOSUNNY   72  49  44 W10G17    30.27F
GRAND JUNCTION SUNNY     74  53  48 VRB7      30.21F
RIFLE          CLOUDY    68  51  54 CALM      30.25F
MONTROSE       SUNNY     74  47  38 CALM      30.28F
CORTEZ         SUNNY     73  40  30 CALM      30.29F
PAGE, AZ       SUNNY     78  41  26 CALM      30.19F
GRAND CANYON   SUNNY     73  33  23 SW7       30.34F
KINGMAN        SUNNY     86  31  13 NW3       30.14S
FLAGSTAFF      SUNNY     69  43  38 VRB6      30.37S

$$

REGIONAL REPORTS    NEVADA/IDAHO/WYOMING

CITY           SKY/WX    TMP DP  RH WIND       PRES   REMARKS
LAS VEGAS, NV  SUNNY     87  38  17 CALM      30.01F
ELY            SUNNY     73  39  29 S6        30.28F
ELKO           PTSUNNY   74  45  35 CALM      30.18F
POCATELLO, ID  MOSUNNY   71  52  50 VRB5      30.17F
BURLEY         MOSUNNY   72  53  51 NE8       30.12F
EVANSTON, WY   MOSUNNY   67  44  43 W13       30.32S
ROCK SPRINGS   SUNNY     65  44  46 W17G28    30.29S

$$


USA.gov is the U.S. government's official web portal to all federal, state and local government web resources and services.